Temperature
7 8 8 8 8 8 9 8 8 8 8 9 9 9 9 9 9 9 9 9 9 9 9 9 9 9 9 9 9 9 9 9 9 10 9 10 10 10 10 10 10 10 10
7 7 7 8 8 8 8 8 8 8 8 8 8 8 8 8 8 9 9 9 9 9 9 9 9 9 9 9 9 9 9 9 9 9 8 8 9 9 9 10 10 10 10
7 7 7 7 7 8 8 8 8 8 8 7 7 7 7 8 8 8 8 8 8 8 8 8 8 8 8 8 8 8 8 8 8 8 8 8 9 8 8 9 9 9 9
6 6 6 6 7 7 7 7 7 7 7 7 7 7 7 7 7 7 7 8 8 8 8 8 8 8 8 8 8 8 8 8 8 8 7 7 7 7 7 8 8 8 8
5 5 6 6 6 6 6 7 7 7 7 7 6 6 6 6 6 7 7 7 7 7 7 7 7 7 7 7 7 7 7 7 7 7 7 7 7 7 6 7 7 7 7
5 5 5 5 6 6 6 6 6 6 6 6 6 6 6 6 6 6 6 6 6 6 6 7 7 7 7 7 7 7 7 7 7 7 7 6 6 6 6 6 6 6 6
4 4 5 5 5 5 5 5 5 5 5 5 5 5 5 5 5 6 6 6 6 6 6 6 6 6 6 6 6 6 6 6 6 6 6 6 6 6 6 5 5 5 5
4 4 4 4 5 5 5 5 5 5 5 5 5 5 5 5 5 5 5 5 5 5 5 5 6 6 6 6 6 6 6 6 6 6 6 5 5 5 5 5 5 4 5
3 3 3 4 4 4 4 4 4 4 4 4 4 4 4 4 4 4 4 4 4 4 5 5 5 5 5 5 5 5 5 5 5 5 5 5 5 5 5 4 4 4 4
3 3 3 3 3 4 4 4 4 4 4 4 4 4 4 4 4 4 4 4 4 4 4 4 4 4 4 4 4 4 4 4 4 4 4 4 4 4 4 4 4 4 3
2 2 2 3 3 3 3 3 3 3 3 3 3 3 3 3 3 3 3 3 3 3 3 3 3 4 4 4 4 3 3 3 4 3 4 4 4 3 4 3 3 3 3
2 1 2 2 2 2 2 2 3 3 3 3 3 3 2 2 2 2 2 2 3 3 3 3 3 3 3 3 3 3 3 3 3 3 3 3 3 3 3 3 3 3 3
1 1 1 1 1 1 2 2 2 2 2 2 2 2 2 2 2 2 2 2 2 2 2 2 2 2 2 2 2 2 2 2 2 2 2 2 2 2 2 2 2 2 2
1 1 1 1 1 1 1 1 1 1 1 1 1 1 1 1 1 1 1 1 1 1 1 1 2 2 2 2 2 2 2 2 2 1 1 1 2 2 2 2 2 2 2
0 0 0 0 0 0 1 0 1 1 1 1 1 1 1 1 1 1 1 1 1 1 1 1 1 1 1 1 1 1 1 1 1 1 1 1 1 1 1 1 1 1 1
-0 -0 -0 -0 -0 0 0 0 0 0 0 0 0 0 -0 -0 -0 -0 -0 -0 -0 0 0 -0 0 0 -0 -0 0 0 0 0 0 -0 -0 0 0 0 0 0 1 1 0
-0 -0 -0 -0 -0 -0 -0 -0 -0 -0 -0 -1 -1 -1 -1 -1 -1 -1 -1 -1 -1 -1 -1 -1 -1 -1 -1 -1 -0 -0 -0 -1 -1 -1 -1 -1 -0 -0 -0 -0 -0 -0 -0
-0 -0 -0 -0 -1 -1 -1 -1 -1 -1 -1 -1 -1 -1 -2 -1 -2 -2 -2 -2 -2 -2 -1 -2 -1 -1 -1 -1 -1 -1 -1 -1 -1 -1 -1 -1 -1 -1 -1 -1 -1 -1 -1
-1 -1 -1 -1 -1 -1 -1 -1 -1 -1 -2 -2 -2 -2 -2 -2 -2 -2 -2 -2 -2 -2 -2 -2 -2 -2 -2 -2 -2 -2 -2 -2 -2 -2 -2 -2 -2 -2 -2 -2 -1 -1 -1
-1 -1 -1 -1 -1 -1 -2 -1 -2 -2 -2 -2 -2 -2 -3 -3 -3 -3 -3 -3 -3 -3 -3 -3 -3 -2 -2 -2 -2 -2 -2 -2 -2 -2 -2 -2 -2 -2 -2 -2 -2 -2 -2
-1 -1 -1 -2 -2 -2 -2 -2 -2 -2 -2 -3 -3 -3 -3 -3 -3 -3 -3 -3 -3 -3 -3 -3 -3 -3 -3 -3 -3 -3 -3 -3 -3 -3 -3 -3 -3 -2 -2 -2 -3 -3 -2
-2 -2 -2 -2 -2 -2 -2 -2 -2 -2 -3 -3 -3 -3 -3 -3 -3 -4 -4 -4 -4 -4 -4 -4 -4 -4 -4 -4 -4 -4 -3 -3 -3 -3 -3 -3 -3 -3 -3 -3 -3 -3 -3
-2 -2 -2 -2 -2 -3 -3 -3 -3 -3 -3 -3 -3 -3 -4 -4 -4 -4 -4 -4 -4 -5 -4 -4 -4 -4 -4 -4 -4 -4 -4 -4 -4 -4 -4 -4 -4 -4 -4 -4 -4 -3 -3
-3 -3 -3 -3 -3 -3 -3 -3 -3 -3 -4 -4 -4 -4 -4 -4 -4 -4 -4 -5 -5 -5 -5 -5 -5 -5 -5 -5 -5 -4 -4 -4 -4 -4 -4 -4 -4 -4 -4 -4 -4 -4 -4
-3 -4 -4 -3 -3 -3 -3 -4 -4 -4 -4 -4 -4 -4 -4 -5 -5 -5 -5 -5 -5 -5 -5 -5 -5 -5 -5 -5 -5 -5 -5 -5 -5 -5 -5 -4 -4 -4 -4 -4 -4 -4 -4
-4 -4 -4 -4 -4 -4 -4 -4 -4 -4 -5 -5 -5 -5 -5 -5 -5 -5 -5 -5 -5 -5 -6 -6 -6 -5 -5 -5 -5 -5 -5 -5 -5 -5 -5 -5 -5 -5 -5 -5 -5 -5 -5
Wind_Speed
4 2 2 1 1 1 1 1 1 1 1 1 1 1 1 1 1 1 1 2 2 3 3 2 2 3 3 3 4 4 4 3 3 3 3 4 4 4 4 4 4 4 5
5 4 3 2 1 1 1 1 0 0 1 1 1 2 1 1 1 1 1 2 2 2 3 3 3 3 3 3 4 4 3 3 2 3 3 3 4 3 3 4 4 4 4
7 5 4 3 2 1 0 0 0 1 1 1 1 1 1 1 1 1 1 2 2 2 3 3 3 3 3 3 4 5 5 4 4 3 3 3 3 2 2 3 4 4 4
7 6 4 3 2 1 1 0 0 0 0 1 1 1 2 2 2 2 2 2 2 2 2 3 4 4 4 4 4 5 5 5 5 4 4 4 3 3 3 3 4 4 5
6 6 5 4 3 1 0 0 0 0 0 1 1 2 2 2 1 1 2 2 2 2 2 3 3 4 4 4 5 5 6 5 6 5 4 4 4 5 5 5 4 4 5
5 4 3 2 2 1 0 0 0 1 1 1 1 2 2 2 1 2 2 2 2 2 2 3 3 4 4 5 5 5 6 6 6 5 4 4 4 4 5 6 6 6 5
4 3 2 2 2 1 1 1 0 1 1 2 2 2 2 2 3 3 2 2 2 2 3 3 4 4 4 5 5 5 5 6 6 5 5 5 5 5 5 6 6 6 5
3 3 2 2 2 1 1 1 1 1 1 1 2 2 2 2 3 3 3 3 3 3 4 4 4 4 5 4 4 4 5 5 5 5 5 5 5 5 5 5 5 6 6
2 2 2 1 1 1 2 2 2 2 1 1 2 2 2 2 3 3 3 3 3 3 4 4 4 4 4 4 5 4 5 5 5 5 5 5 5 5 5 5 6 7 7
1 1 1 1 1 1 1 1 2 2 2 2 2 2 3 3 3 3 3 3 4 4 4 5 4 4 4 4 4 5 5 5 5 5 5 6 5 5 5 6 6 7 7
2 2 1 1 1 1 1 1 1 2 2 2 2 3 3 3 3 3 3 3 4 4 4 4 4 4 4 4 4 5 5 6 6 6 6 7 7 6 5 5 6 6 7
2 1 1 1 1 1 1 1 2 2 2 2 2 3 3 3 3 3 3 4 4 4 4 4 4 4 4 4 5 5 5 6 6 6 6 7 6 7 6 6 7 7 7
1 1 1 1 1 1 1 1 2 2 2 2 2 2 3 3 3 3 4 4 4 4 4 3 4 4 4 4 5 5 6 6 6 6 6 6 6 7 7 7 7 6 6
2 2 2 2 2 2 2 2 2 2 2 2 2 2 3 3 3 4 4 4 4 4 4 3 4 4 5 5 5 4 5 5 5 6 6 6 6 7 7 7 7 6 6
3 3 3 2 2 2 2 2 2 2 2 2 2 2 3 3 3 3 4 4 4 4 3 4 4 4 4 4 5 5 5 5 5 6 6 6 6 7 7 6 6 6 6
4 3 3 3 3 3 3 3 2 2 2 2 3 3 3 3 3 3 4 3 3 3 3 4 4 4 4 5 7 6 5 5 5 6 6 6 6 7 8 9 9 8 7
5 4 4 4 4 3 3 3 2 2 2 2 3 3 3 3 3 3 3 3 3 3 4 4 4 4 5 6 7 7 5 5 5 6 6 5 5 6 6 8 9 9 9
5 5 4 4 3 3 3 3 2 2 2 2 3 3 3 3 3 3 3 3 3 3 3 4 4 4 5 5 6 7 5 5 5 5 6 6 6 6 7 7 7 7 7
5 4 4 4 3 3 3 2 3 3 3 3 3 3 3 4 4 4 4 3 3 3 4 4 4 5 5 5 6 6 4 4 5 5 5 5 6 7 8 7 7 7 7
3 3 3 3 3 3 2 3 3 3 4 4 3 3 3 4 4 4 4 4 3 4 4 4 4 5 5 5 6 6 4 4 4 4 5 5 6 7 8 7 7 8 7
2 2 2 2 3 2 3 3 4 4 4 3 3 4 4 4 4 4 4 4 4 4 4 4 4 4 5 5 6 6 4 4 5 4 4 5 7 7 7 7 7 7 8
3 2 2 3 2 2 3 4 4 3 3 3 3 4 4 4 3 4 4 4 4 4 4 4 4 4 4 4 5 6 6 6 5 5 5 5 7 7 7 6 6 7 7
3 3 3 3 3 2 3 4 3 2 2 3 3 3 3 3 3 4 4 3 3 3 3 3 4 4 4 4 5 6 6 7 5 5 6 7 8 7 6 5 6 6 4
4 3 3 3 3 3 3 4 3 2 2 3 3 3 3 3 3 3 3 3 3 3 4 4 4 4 4 4 4 4 4 5 5 5 6 7 6 6 6 5 5 4 4
3 3 3 4 4 3 3 3 2 2 3 3 3 3 3 3 3 3 3 4 4 4 5 4 5 5 5 5 6 5 4 4 4 5 4 4 3 4 3 4 4 4 4
4 3 4 4 4 3 3 3 2 3 3 3 3 3 3 3 3 3 4 4 5 6 7 7 7 6 7 8 8 8 7 7 6 5 4 4 4 4 4 4 4 4 4
Wind_Direction
217 199 194 168 139 100 77 54 37 12 346 307 304 268 266 264 250 243 255 241 237 232 227 230 235 232 229 230 234 240 253 257 263 261 261 254 250 248 251 248 245 240 241
212 208 207 196 181 151 108 74 17 331 311 306 303 283 260 261 270 288 263 246 242 241 236 230 236 237 238 235 233 235 238 245 237 251 262 265 235 234 250 251 248 246 240
215 214 210 206 185 169 198 220 268 294 312 335 333 309 242 234 269 290 276 276 261 241 248 244 237 236 231 234 236 232 232 235 233 241 248 254 255 279 237 247 247 248 248
215 212 210 210 211 213 204 232 210 206 309 304 279 273 255 255 269 273 285 300 297 271 250 249 243 241 234 234 237 235 237 235 233 233 242 260 276 262 263 240 244 256 259
215 213 211 208 213 201 176 136 67 104 217 257 260 264 270 272 273 280 290 310 311 307 280 257 251 249 245 241 241 241 241 235 233 232 235 244 250 250 254 263 261 260 256
212 212 212 204 201 181 142 50 54 7 340 295 277 278 275 274 262 274 286 300 309 303 302 287 266 257 253 246 242 241 240 238 238 234 231 238 237 236 242 256 265 269 269
210 208 209 209 209 202 198 224 218 302 328 315 293 287 272 264 258 260 265 286 298 294 293 299 284 271 260 255 248 241 240 239 239 236 238 242 249 251 246 251 263 271 275
203 208 220 226 221 220 219 232 246 276 290 299 308 307 289 279 278 272 270 272 280 291 297 289 287 282 271 260 250 244 241 239 239 242 243 245 249 250 243 244 253 269 268
220 225 228 237 240 229 238 243 249 268 288 298 299 300 308 296 288 285 278 276 283 293 296 291 286 281 277 266 255 247 246 243 239 240 242 244 247 248 252 247 245 250 264
272 266 255 264 272 261 254 257 260 271 293 308 309 301 292 286 286 291 294 294 293 291 293 290 288 287 279 272 260 252 253 252 250 244 245 249 248 243 244 247 247 247 253
271 264 284 302 308 294 268 274 284 291 306 315 311 305 298 295 295 293 295 299 302 301 294 292 289 288 286 277 266 260 256 252 253 249 247 251 255 249 245 247 247 246 246
290 272 277 285 289 292 298 300 296 296 302 308 306 308 307 303 303 304 303 302 299 301 302 301 295 290 289 284 273 267 261 255 254 254 253 254 253 252 250 247 248 249 248
314 291 279 282 298 299 303 308 309 307 309 307 304 316 310 308 307 306 305 303 301 304 305 303 300 294 288 283 281 276 271 264 261 260 259 260 256 255 252 250 251 253 255
281 282 287 289 289 293 300 306 313 316 313 308 306 312 312 314 311 305 302 303 303 307 310 308 301 299 293 284 280 281 279 274 270 267 263 262 257 257 257 253 253 256 255
273 276 283 283 280 289 304 307 308 313 315 313 311 314 316 317 315 309 305 303 304 306 306 303 301 300 296 293 294 288 277 271 272 270 264 261 262 265 262 257 255 254 253
266 269 275 275 270 274 287 298 303 310 311 306 307 314 314 317 314 313 309 307 307 306 305 303 303 302 297 304 304 298 281 275 272 274 270 266 261 261 263 262 261 255 252
263 263 267 269 267 266 268 273 283 294 295 295 300 305 305 309 312 314 310 309 306 305 302 302 299 297 300 306 309 307 291 279 274 275 274 269 268 268 265 265 262 261 260
263 263 264 267 267 263 258 259 261 264 272 282 290 297 301 303 305 306 307 309 308 307 305 305 303 300 304 312 310 309 294 279 276 276 276 274 275 274 274 272 271 269 268
261 260 258 259 258 254 247 239 249 256 260 269 280 292 294 294 297 301 302 305 306 307 307 306 306 301 304 311 312 308 295 288 286 283 282 281 281 284 284 275 273 275 277
259 258 257 256 247 247 232 228 245 253 259 267 275 281 282 282 285 291 297 298 294 294 302 305 305 302 301 309 311 308 298 294 295 292 287 284 285 293 293 280 271 271 277
261 262 256 253 251 243 223 231 244 255 267 276 277 279 278 278 279 285 287 291 290 292 298 300 301 301 300 304 307 308 299 293 292 292 295 295 300 293 291 288 279 275 279
269 270 268 274 269 243 228 237 251 267 277 276 276 279 282 285 281 281 284 285 287 289 292 296 300 300 298 299 304 304 300 295 287 289 293 296 303 300 294 290 290 291 287
277 279 268 279 279 256 241 248 264 273 270 272 274 280 286 286 281 277 279 281 282 282 287 289 293 300 302 301 298 297 297 296 290 291 295 296 298 297 293 295 297 295 287
277 272 267 270 279 280 268 261 266 258 249 258 270 278 281 287 288 282 274 272 273 275 279 283 287 293 294 297 300 299 297 292 289 290 290 288 287 288 287 291 295 292 287
273 265 261 266 273 281 280 277 262 242 241 253 264 272 275 278 285 284 282 277 272 273 273 277 279 284 288 293 298 297 298 300 298 297 296 293 288 289 289 289 289 290 291
269 263 262 261 267 274 278 279 260 237 236 247 256 261 268 275 280 287 296 292 280 288 284 281 282 284 284 290 293 293 292 291 287 286 283 283 282 282 283 284 286 285 283
Height
1513 1514 1514 1515 1516 1517 1517 1517 1518 1518 1518 1518 1518 1518 1519 1519 1520 1520 1521 1521 1522 1522 1522 1523 1523 1524 1524 1524 1524 1525 1525 1525 1525 1525 1525 1524 1524 1524 1524 1524 1525 1525 1525
1510 1511 1512 1513 1513 1514 1514 1515 1515 1516 1516 1515 1515 1515 1516 1516 1516 1517 1517 1517 1518 1518 1519 1519 1519 1520 1520 1520 1521 1521 1522 1522 1522 1522 1522 1522 1523 1520 1520 1521 1521 1521 1521
1507 1508 1509 1509 1510 1510 1511 1512 1512 1513 1513 1513 1513 1512 1513 1513 1513 1513 1513 1514 1514 1515 1515 1515 1516 1516 1516 1516 1517 1518 1518 1518 1519 1519 1520 1520 1519 1518 1518 1517 1517 1517 1518
1504 1505 1505 1506 1507 1507 1508 1509 1510 1510 1510 1510 1510 1510 1509 1509 1509 1509 1509 1510 1510 1511 1511 1512 1512 1512 1512 1513 1513 1514 1514 1515 1514 1515 1515 1516 1515 1516 1515 1515 1515 1514 1514
1501 1501 1502 1503 1504 1504 1505 1506 1507 1507 1507 1508 1507 1507 1506 1506 1506 1506 1506 1506 1507 1507 1507 1508 1508 1508 1508 1509 1509 1509 1510 1510 1511 1511 1511 1511 1511 1512 1512 1511 1511 1511 1510
1498 1499 1499 1500 1501 1501 1502 1503 1504 1504 1504 1504 1504 1504 1503 1503 1502 1503 1503 1503 1503 1503 1503 1503 1504 1504 1504 1504 1505 1505 1505 1506 1506 1506 1506 1507 1507 1507 1508 1507 1507 1506 1506
1495 1496 1496 1497 1497 1498 1499 1500 1501 1501 1501 1501 1501 1501 1500 1500 1500 1499 1499 1499 1499 1499 1499 1499 1499 1499 1499 1500 1500 1500 1500 1501 1501 1501 1502 1502 1502 1503 1503 1503 1502 1502 1501
1493 1493 1494 1494 1494 1495 1496 1497 1498 1498 1498 1498 1498 1498 1497 1497 1496 1497 1496 1496 1496 1496 1496 1495 1495 1495 1495 1495 1495 1495 1495 1496 1496 1496 1497 1497 1497 1498 1498 1498 1499 1498 1497
1491 1491 1491 1491 1492 1492 1493 1494 1495 1495 1495 1495 1494 1495 1494 1494 1494 1493 1493 1493 1492 1492 1492 1491 1491 1490 1490 1490 1490 1490 1491 1491 1491 1491 1492 1492 1492 1493 1493 1493 1494 1495 1493
1489 1489 1489 1489 1489 1490 1491 1491 1492 1492 1492 1492 1491 1491 1491 1491 1491 1490 1490 1489 1489 1488 1488 1487 1487 1486 1486 1486 1486 1486 1486 1486 1486 1486 1487 1487 1488 1488 1488 1489 1489 1489 1489
1487 1487 1487 1487 1487 1487 1488 1488 1488 1488 1488 1488 1488 1488 1488 1487 1487 1487 1486 1486 1485 1485 1484 1483 1483 1482 1482 1481 1481 1481 1481 1482 1482 1482 1482 1482 1483 1483 1483 1483 1483 1483 1483
1486 1486 1485 1485 1485 1485 1485 1485 1485 1485 1485 1485 1485 1485 1485 1484 1484 1483 1482 1482 1482 1481 1480 1480 1479 1478 1478 1477 1477 1477 1477 1477 1477 1477 1477 1477 1478 1477 1478 1478 1478 1478 1478
1484 1484 1484 1483 1483 1483 1483 1482 1482 1482 1482 1482 1482 1482 1481 1481 1480 1479 1479 1478 1478 1477 1476 1476 1475 1474 1474 1474 1473 1473 1472 1472 1472 1472 1472 1472 1472 1472 1472 1472 1472 1472 1472
1483 1482 1482 1482 1481 1481 1480 1480 1480 1480 1479 1479 1479 1478 1478 1477 1476 1476 1476 1475 1474 1473 1472 1472 1471 1470 1470 1470 1469 1468 1468 1468 1467 1467 1467 1467 1467 1467 1467 1466 1467 1467 1466
1481 1481 1480 1480 1479 1479 1478 1478 1477 1477 1477 1476 1475 1475 1474 1474 1473 1473 1472 1471 1470 1469 1469 1468 1467 1467 1466 1466 1465 1465 1464 1463 1463 1462 1462 1462 1462 1461 1461 1461 1461 1461 1460
1479 1479 1478 1478 1477 1477 1476 1475 1475 1474 1474 1473 1473 1472 1471 1470 1470 1469 1468 1467 1467 1466 1465 1464 1463 1463 1463 1462 1461 1461 1460 1459 1458 1458 1457 1457 1457 1456 1456 1456 1456 1456 1455
1477 1476 1476 1475 1475 1474 1473 1473 1473 1472 1471 1471 1470 1469 1468 1468 1467 1466 1465 1464 1463 1462 1462 1461 1460 1459 1459 1458 1458 1457 1456 1455 1454 1454 1453 1452 1452 1451 1451 1450 1450 1450 1450
1474 1474 1473 1472 1472 1471 1471 1470 1470 1469 1469 1468 1467 1467 1466 1465 1464 1463 1462 1461 1460 1459 1458 1458 1457 1456 1455 1455 1454 1453 1452 1451 1450 1450 1449 1448 1447 1447 1447 1446 1445 1444 1444
1471 1471 1470 1470 1469 1468 1468 1467 1467 1467 1466 1465 1465 1464 1464 1463 1461 1460 1459 1458 1457 1456 1455 1455 1454 1453 1452 1451 1450 1450 1449 1448 1447 1446 1445 1444 1444 1443 1443 1442 1440 1439 1439
1468 1468 1467 1467 1466 1466 1465 1465 1464 1464 1463 1463 1462 1462 1461 1460 1459 1458 1457 1456 1455 1454 1452 1451 1450 1449 1448 1448 1447 1446 1445 1444 1443 1442 1442 1441 1440 1439 1438 1437 1436 1435 1434
1465 1465 1464 1464 1463 1463 1462 1461 1461 1460 1460 1460 1459 1459 1458 1457 1456 1455 1454 1453 1452 1451 1449 1448 1447 1446 1445 1444 1443 1443 1442 1441 1440 1438 1437 1437 1436 1435 1434 1433 1432 1431 1430
1462 1462 1461 1460 1460 1460 1459 1458 1458 1458 1457 1457 1456 1456 1455 1454 1453 1452 1451 1450 1449 1448 1446 1445 1444 1443 1442 1441 1440 1439 1439 1437 1436 1435 1434 1433 1432 1431 1430 1429 1428 1427 1426
1459 1459 1458 1457 1457 1457 1456 1455 1455 1454 1454 1453 1453 1453 1452 1451 1450 1449 1448 1447 1446 1445 1444 1442 1441 1440 1439 1438 1437 1436 1435 1434 1433 1431 1430 1429 1428 1427 1426 1425 1424 1423 1422
1456 1456 1455 1454 1454 1453 1453 1452 1452 1451 1451 1450 1450 1450 1449 1448 1447 1446 1445 1444 1443 1442 1441 1440 1438 1437 1436 1435 1434 1433 1432 1430 1429 1428 1427 1426 1424 1423 1422 1421 1420 1419 1418
1453 1453 1452 1451 1450 1450 1449 1449 1448 1448 1448 1447 1447 1446 1446 1445 1444 1443 1442 1441 1440 1439 1438 1437 1436 1434 1433 1432 1431 1430 1428 1427 1426 1425 1423 1422 1421 1419 1418 1417 1416 1415 1414
1450 1449 1449 1448 1447 1447 1446 1446 1445 1445 1444 1444 1444 1443 1443 1442 1441 1440 1439 1438 1437 1436 1435 1434 1433 1431 1430 1429 1427 1426 1425 1424 1423 1422 1420 1418 1417 1416 1414 1414 1413 1412 1411